TimeGMT,TemperatureF,Dew PointF,Humidity,Sea Level PressureIn,VisibilityMPH,Wind Direction,Wind SpeedMPH,Gust SpeedMPH,PrecipitationIn,Events,Conditions,WindDirDegrees,DateUTC
12:00 AM,40,37,86,29.81,12,WNW,13.4,,,,Partly Cloudy,290,2012-12-05 00:00:00
12:00 AM,39.2,37.4,93,29.77,6.2,WNW,12.7,-,N/A,,Partly Cloudy,290,2012-12-05 00:00:00
12:30 AM,39.2,37.4,93,29.80,6.2,WNW,13.8,-,N/A,,Partly Cloudy,300,2012-12-05 00:30:00
1:00 AM,39.2,37.4,93,29.80,6.2,WNW,13.8,-,N/A,,Partly Cloudy,300,2012-12-05 01:00:00
1:30 AM,39.2,39.2,100,29.80,6.2,NW,13.8,-,N/A,,Partly Cloudy,320,2012-12-05 01:30:00
2:00 AM,39.2,37.4,93,29.83,6.2,NW,11.5,-,N/A,,Partly Cloudy,310,2012-12-05 02:00:00
2:30 AM,39.2,35.6,87,29.83,6.2,NW,18.4,-,N/A,,Partly Cloudy,310,2012-12-05 02:30:00
3:00 AM,39.2,35.6,87,29.83,6.2,NW,17.3,-,N/A,,Scattered Clouds,310,2012-12-05 03:00:00
3:30 AM,39.2,35.6,87,29.86,6.2,NW,17.3,-,N/A,,Scattered Clouds,320,2012-12-05 03:30:00
4:00 AM,39.2,35.6,87,29.86,6.2,NW,15.0,-,N/A,,Scattered Clouds,320,2012-12-05 04:00:00
4:30 AM,37.4,35.6,93,29.86,6.2,NW,16.1,-,N/A,,Partly Cloudy,320,2012-12-05 04:30:00
5:00 AM,37.4,35.6,93,29.89,6.2,NNW,18.4,-,N/A,,Mostly Cloudy,330,2012-12-05 05:00:00
5:30 AM,37.4,33.8,87,29.92,6.2,NNW,18.4,-,N/A,,Mostly Cloudy,330,2012-12-05 05:30:00
6:00 AM,37,34,85,29.95,19,NNW,15.7,,,,Mostly Cloudy,330,2012-12-05 06:00:00
6:00 AM,37.4,33.8,87,29.92,6.2,NNW,16.1,-,N/A,,Mostly Cloudy,330,2012-12-05 06:00:00
6:30 AM,37.4,33.8,87,29.92,6.2,NNW,13.8,-,N/A,,Mostly Cloudy,340,2012-12-05 06:30:00
7:00 AM,35.6,33.8,93,29.95,6.2,NNW,12.7,-,N/A,,Partly Cloudy,340,2012-12-05 07:00:00
7:30 AM,35.6,33.8,93,29.95,6.2,NNW,12.7,-,N/A,,Partly Cloudy,330,2012-12-05 07:30:00
8:00 AM,33.8,32.0,93,29.98,6.2,NNW,10.4,-,N/A,,Partly Cloudy,330,2012-12-05 08:00:00
8:30 AM,33.8,32.0,93,29.98,6.2,NW,12.7,-,N/A,,Partly Cloudy,320,2012-12-05 08:30:00
9:30 AM,33.8,32.0,93,30.01,6.2,NW,10.4,-,N/A,,Partly Cloudy,320,2012-12-05 09:30:00
10:00 AM,33.8,32.0,93,30.01,6.2,NW,11.5,-,N/A,,Partly Cloudy,320,2012-12-05 10:00:00
10:30 AM,35.6,32.0,87,30.01,6.2,NW,12.7,-,N/A,,Partly Cloudy,320,2012-12-05 10:30:00
11:00 AM,35.6,32.0,87,30.04,6.2,NW,13.8,-,N/A,,Partly Cloudy,320,2012-12-05 11:00:00
11:30 AM,37.4,32.0,81,30.04,6.2,NW,13.8,-,N/A,,Scattered Clouds,320,2012-12-05 11:30:00
12:00 PM,39,32,69,30.06,31,NNW,13.4,,,,Partly Cloudy,330,2012-12-05 12:00:00
12:00 PM,39.2,32.0,75,30.04,6.2,NNW,13.8,-,N/A,,Scattered Clouds,330,2012-12-05 12:00:00
12:30 PM,39.2,32.0,75,30.04,6.2,NW,12.7,-,N/A,,Scattered Clouds,320,2012-12-05 12:30:00
1:00 PM,41.0,32.0,70,30.04,6.2,NW,12.7,-,N/A,,Scattered Clouds,310,2012-12-05 13:00:00
3:00 PM,41.0,33.8,76,30.04,6.2,NNW,12.7,-,N/A,,Partly Cloudy,330,2012-12-05 15:00:00
3:30 PM,39.2,33.8,81,30.04,6.2,NW,10.4,-,N/A,,Partly Cloudy,320,2012-12-05 15:30:00
4:00 PM,39.2,33.8,81,30.04,6.2,WNW,6.9,-,N/A,,Partly Cloudy,290,2012-12-05 16:00:00
4:30 PM,39.2,33.8,81,30.04,6.2,NW,8.1,-,N/A,,Partly Cloudy,320,2012-12-05 16:30:00
5:00 PM,37.4,33.8,87,30.04,6.2,WNW,6.9,-,N/A,,Partly Cloudy,300,2012-12-05 17:00:00
5:30 PM,37.4,33.8,87,30.04,6.2,NW,9.2,-,N/A,,Partly Cloudy,310,2012-12-05 17:30:00
6:00 PM,37,33,80,30.09,19,West,6.7,,,,Scattered Clouds,280,2012-12-05 18:00:00
6:00 PM,37.4,33.8,87,30.06,6.2,West,5.8,-,N/A,,Partly Cloudy,280,2012-12-05 18:00:00
6:30 PM,35.6,32.0,87,30.06,6.2,WNW,6.9,-,N/A,,Partly Cloudy,290,2012-12-05 18:30:00
7:00 PM,35.6,32.0,87,30.06,6.2,West,5.8,-,N/A,,Partly Cloudy,280,2012-12-05 19:00:00
7:30 PM,35.6,32.0,87,30.06,6.2,West,6.9,-,N/A,,Partly Cloudy,270,2012-12-05 19:30:00
8:00 PM,35.6,32.0,87,30.06,6.2,West,3.5,-,N/A,,Partly Cloudy,280,2012-12-05 20:00:00
8:30 PM,35.6,32.0,87,30.06,6.2,West,4.6,-,N/A,,Partly Cloudy,270,2012-12-05 20:30:00
9:00 PM,37.4,32.0,81,30.06,6.2,WNW,6.9,-,N/A,,Partly Cloudy,290,2012-12-05 21:00:00
9:30 PM,37.4,32.0,81,30.06,6.2,West,5.8,-,N/A,,Partly Cloudy,280,2012-12-05 21:30:00
10:00 PM,37.4,30.2,75,30.06,6.2,West,4.6,-,N/A,,Partly Cloudy,260,2012-12-05 22:00:00
10:30 PM,35.6,30.2,81,30.06,6.2,West,4.6,-,N/A,,Partly Cloudy,260,2012-12-05 22:30:00
11:00 PM,37.4,30.2,75,30.06,6.2,West,4.6,-,N/A,,Partly Cloudy,260,2012-12-05 23:00:00
11:30 PM,35.6,30.2,81,30.06,6.2,WSW,1.2,-,N/A,,Partly Cloudy,240,2012-12-05 23:30:00